Location: Maynard F. Jordan Observatory
(44.9000°N, 68.6700°W)
Time: 02:43:41
(UTC-04:00)

Daily predictions for brighter satellites

Satellite Brightness Start Highest point End
(mag) Time Altitude Azimuth Time Altitude Azimuth Time Altitude Azimuth
SL-16 R/B 4.4 01:53:31 25° NE 01:53:31 25° NE 01:57:30 10° N
ATLAS 2AS CENTAUR R/B 3.6 02:54:39 46° NNW 02:54:39 46° NNW 03:01:40 10° NNE
ATLAS 5 CENTAUR R/B 3.9 03:07:01 28° ESE 03:07:01 28° ESE 03:09:56 10° SE
Cosmos 2237 Rocket 4.3 03:00:16 10° NNW 03:01:41 18° NNW 03:01:41 18° NNW
Lacrosse 5 rocket 3.9 03:09:38 21° NNE 03:09:38 21° NNE 03:11:13 10° NE
NOSS 3-2 (A) 4.1 03:12:00 10° NW 03:21:08 61° SSE 03:27:34 10° SSE
Cosmos 2219 4.3 03:26:44 35° N 03:26:44 35° N 03:30:14 10° NNE
CZ-2D R/B 2.9 03:21:12 10° NNE 03:24:53 46° NNE 03:24:53 46° NNE
SL-16 R/B 3.6 03:21:30 10° NNW 03:26:46 36° NE 03:31:58 10° ESE
Lacrosse 5 2.7 03:36:01 48° E 03:36:01 48° E 03:39:52 10° NE
SL-16 R/B 3.6 03:38:38 32° NNW 03:38:38 32° NNW 03:41:53 10° NNW
Cosmos 2227 Rocket 2.4 03:39:48 66° ESE 03:39:48 66° ESE 03:45:21 10° NNE
IRS-1D 4.4 03:34:39 10° N 03:38:17 43° N 03:38:17 43° N
Cosmos 1605 Rocket 3.9 03:34:55 10° N 03:41:07 86° E 03:41:23 82° SE
Cosmos 1025 Rocket 4.3 03:42:25 38° E 03:42:25 38° E 03:46:08 10° NNE
USA 215 4.0 03:37:33 10° SE 03:41:29 37° SSE 03:41:29 37° SSE
Resurs 1-4 Rocket 2.6 03:40:14 10° N 03:44:13 50° N 03:44:13 50° N
Meteor 1-13 Rocket 4.4 03:45:36 64° SE 03:46:16 71° E 03:51:58 10° NNE
Cosmos 2297 Rocket 2.6 03:47:54 51° SE 03:48:44 56° ESE 03:54:16 10° NNE
Cosmos 2344 3.6 03:47:24 60° WSW 03:48:55 75° NW 03:58:00 10° NE
CENTAUR R/B 3.8 03:42:24 10° NNW 03:49:50 50° NE 03:57:49 10° ESE
NOSS 3-2 (C) 3.9 03:51:18 10° NW 03:58:42 65° WSW 04:06:40 10° SSE
Cosmos 1606 Rocket 4.0 03:57:05 10° N 04:01:25 59° E 04:01:55 55° ESE
DELTA 2 R/B (1) 4.5 04:03:42 35° SSE 04:03:47 35° SSE 04:08:49 10° E
Cosmos 1346 Rocket 3.8 04:04:00 42° ESE 04:04:22 43° E 04:08:12 10° NNE
Okean O Rocket 2.0 04:01:47 10° NNE 04:06:10 60° E 04:06:39 56° SE
RESURS DK-1 2.8 04:08:52 60° NE 04:08:52 60° NE 04:12:21 10° NNE
Cosmos 1726 Rocket 3.9 04:07:17 10° N 04:11:41 64° E 04:14:56 17° SSE
Cosmos 220 Rocket 4.2 04:12:36 59° N 04:12:36 59° N 04:16:06 10° NNE
Meteor 2-8 Rocket 4.4 04:14:36 55° WSW 04:15:26 61° WNW 04:21:30 10° N
PSLV R/B 3.8 04:16:21 10° NNE 04:20:26 86° NNW 04:20:26 86° NNW
ARIANE 5 R/B 3.8 04:16:29 10° N 04:19:31 25° NW 04:19:31 25° NW
Cosmos 2100 Rocket 4.1 04:14:42 10° N 04:20:59 78° E 04:27:16 10° SSE
Cosmos 2082 3.6 04:20:32 57° WSW 04:21:26 66° WNW 04:27:03 10° NNE
CZ-2D R/B 4.5 04:19:02 10° N 04:21:30 32° NNW 04:21:30 32° NNW
Cosmos 1802 Rocket 4.3 04:17:26 10° N 04:23:36 65° E 04:29:40 10° SSE
Cosmos 2061 Rocket 4.2 04:17:19 10° N 04:23:40 74° E 04:30:02 10° SSE
NOSS 3-4 (A) 3.6 04:22:28 47° W 04:24:07 62° NW 04:30:41 10° NNE
NOSS 3-4 (C) 3.6 04:22:33 47° WSW 04:24:13 62° NW 04:30:48 10° NNE
Cosmos 1892 Rocket 3.7 04:24:53 32° S 04:26:54 74° E 04:31:24 10° NNE
PAYLOAD B 4.2 04:21:29 10° NNE 04:27:01 81° ESE 04:30:57 20° S
CZ-3A R/B 2.9 04:27:47 26° NW 04:30:16 78° NE 04:38:44 10° SE
Cosmos 724 4.3 04:28:23 10° NW 04:34:36 70° WSW 04:40:46 10° SSE
Meteor 1-15 Rocket 4.2 04:29:09 10° N 04:34:45 86° E 04:40:23 10° S
Cosmos 2228 3.4 04:32:19 10° N 04:36:43 65° E 04:41:03 10° SSE
ADEOS II 2.9 04:34:07 10° NNE 04:39:15 51° E 04:44:22 10° S
BREEZE M DEB (TANK) 2.7 04:41:19 46° WNW 04:42:11 62° N 04:50:27 10° ENE
Lacrosse 5 rocket 3.5 04:45:22 16° NW 04:47:04 19° NNW 04:50:18 10° NE
ATLAS 5 CENTAUR R/B 3.2 04:48:48 29° SW 04:48:48 29° SW 04:53:33 10° S
Cosmos 1666 3.0 04:44:38 10° NNW 04:47:59 46° WNW 04:47:59 46° WNW
BREEZE-M DEB (TANK) 2.7 04:47:31 40° SW 04:48:42 74° SSE 04:51:13 10° ENE
CZ-4B R/B 3.1 04:43:43 10° N 04:49:07 72° WNW 04:53:41 15° SSW
CZ-2C R/B 4.0 04:47:44 31° SW 04:49:19 43° W 04:53:45 10° NNW
Cosmos 1000 Rocket 4.5 04:45:34 10° S 04:51:55 84° W 04:58:17 10° N
Tiangong 1 1.1 04:52:18 57° S 04:52:19 57° S 04:55:18 10° E
Cosmos 2016 Rocket 4.0 04:47:26 10° N 04:53:50 89° W 05:00:06 10° S
ASTRO F (AKARI) 4.1 04:51:03 10° S 04:54:14 79° WSW 04:57:31 10° NNW
BREEZE-M DEB (TANK) 3.9 04:37:56 10° WNW 04:55:52 84° SSW 05:00:11 10° ESE
CZ-4B R/B 3.2 04:52:17 10° N 04:56:36 54° WNW 04:59:03 25° SW
EXPRESS MD2 3.2 04:57:12 42° W 04:58:12 66° SSW 05:03:44 10° SE
Cosmos 2173 Rocket 3.9 04:53:05 10° NNW 04:59:04 61° W 05:05:05 10° S
Meteor 2-4 Rocket 4.0 04:58:04 17° SW 05:02:26 51° WNW 05:08:14 10° N
Cosmos 292 Rocket 4.4 04:58:53 10° NW 05:03:15 33° WSW 05:07:34 10° SSW
Cosmos 1459 Rocket 4.1 04:58:45 10° NNW 05:04:57 54° W 05:11:03 10° SSW
Cosmos 2298 Rocket 4.0 05:01:56 18° SW 05:05:53 63° WNW 05:11:12 10° NNE
CZ-2D R/B 3.7 05:02:48 10° NNW 05:05:55 16° WNW 05:06:13 16° WNW
MOS 1 Rocket 4.1 05:01:24 10° NNE 05:06:10 56° E 05:11:11 10° S
Cosmos 2058 Rocket 3.4 05:03:37 10° NNW 05:07:44 42° W 05:11:51 10° SSW
Meteor PRIRODA 3.7 05:06:13 10° NNE 05:09:59 80° ESE 05:13:41 10° S
SL-16 R/B 2.6 05:05:40 10° NW 05:10:53 38° WSW 05:16:04 10° S
Okean 2 3.9 05:09:56 24° SW 05:11:50 37° WNW 05:15:43 10° N
Okean-O 2.5 05:08:41 10° NNE 05:13:09 84° WNW 05:17:34 10° SSW
Cosmos 990 Rocket 4.1 05:08:45 10° SSW 05:14:00 82° ESE 05:19:17 10° NNE
Cosmos 2123 Rocket 4.1 05:08:42 10° S 05:14:52 83° E 05:21:05 10° N
COBE Rocket 4.2 05:10:35 10° NNE 05:15:22 68° E 05:20:01 10° S
Cosmos 192 4.2 05:10:53 10° NNW 05:15:50 71° WSW 05:20:42 10° S
Thor Agena Rocket 3.9 05:12:20 10° S 05:17:23 45° W 05:22:28 10° NNW
Aureole 2 Rocket 3.0 05:14:24 10° NW 05:17:27 30° WSW 05:20:15 10° SSW
Lacrosse 5 2.8 05:15:13 20° W 05:18:07 35° NNW 05:22:46 10° NE
Cosmos 2150 Rocket 4.1 05:15:09 13° SW 05:19:41 53° WNW 05:24:45 10° NNE
USA 116 4.2 05:14:50 10° S 05:19:47 60° WSW 05:24:16 10° NNW
Cosmos 1025 Rocket 4.4 05:19:22 20° W 05:19:53 20° WNW 05:23:05 10° NNW
Meteor 2-15 4.4 05:14:50 10° SSW 05:20:51 68° WNW 05:26:55 10° N
COSMO-SKYMED 1 3.8 05:17:13 10° SE 05:21:22 46° ENE 05:25:31 10° N
Cosmos 2227 Rocket 3.5 05:21:39 17° W 05:24:17 23° NW 05:28:47 10° N
Resurs 1-4 Rocket 4.0 05:22:48 10° NW 05:24:26 11° NW 05:25:18 11° WNW
AVUM R/B 4.5 05:25:30 10° N 05:27:45 30° ENE 05:29:51 10° ESE
Cosmos 1174 3.2 05:24:49 10° NW 05:27:47 53° WSW 05:31:00 10° SSE
Cosmos 1864 Rocket 4.5 05:23:03 10° NNW 05:29:24 73° W 05:35:42 10° S
Cosmos 2297 Rocket 3.3 05:29:44 15° W 05:33:09 26° NW 05:37:53 10° N
ADEOS Rocket 3.5 05:26:54 10° N 05:33:45 49° WNW 05:39:56 10° SW
Cosmos 1626 Rocket 3.6 05:33:19 10° SSW 05:37:37 54° WNW 05:41:54 10° N
USA 129 2.1 05:38:30 10° SSW 05:40:09 28° WSW 05:41:40 10° NW
Cosmos 2098 Rocket 3.7 05:36:44 10° NNW 05:40:21 33° W 05:44:48 10° SSW
CENTAUR R/B 3.3 05:33:13 10° NW 05:40:44 51° WSW 05:48:40 10° S
Cosmos 1346 Rocket 4.5 05:39:36 14° W 05:41:02 16° WNW 05:43:35 10° NNW
Okean O Rocket 3.3 05:39:27 10° NNW 05:42:03 16° WNW 05:44:07 12° W
Cosmos 1898 Rocket 4.3 05:40:18 10° WSW 05:45:03 32° WNW 05:49:48 10° N
RESURS DK-1 4.4 05:44:50 10° WNW 05:46:51 13° NW 05:48:54 10° NNW
NOSS 2-2 (D) 3.6 05:44:09 10° SW 05:48:17 69° NW 05:53:14 10° NE
DELTA 2 R/B (1) 4.1 05:44:29 11° WSW 05:49:42 50° S 05:55:06 10° ESE
Meteor 1-22 Rocket 4.3 05:44:55 10° N 05:50:26 88° E 05:56:10 10° S
Cosmos 1125 Rocket 3.9 05:46:14 10° S 05:51:22 70° ESE 05:56:35 10° NNE
Cosmos 1943 3.3 05:47:14 10° NNW 05:52:54 83° ENE 05:58:32 10° SSE
Cosmos 1937 Rocket 4.2 05:51:01 10° SW 05:55:48 35° WNW 06:00:40 10° N
Cosmos 1953 Rocket 4.5 05:51:47 10° S 05:56:09 57° E 06:00:33 10° NNE
Cosmos 1603 4.1 05:53:11 10° NW 05:58:31 41° WSW 06:03:48 10° S
Cosmos 2233 Rocket 4.0 05:54:38 10° NNW 06:00:52 66° W 06:07:00 10° S
Cosmos 1602 Rocket 4.3 05:57:50 10° SW 06:01:48 31° WNW 06:05:46 10° N
NOSS 2-2 (C) 3.9 05:59:38 10° WSW 06:03:45 51° NW 06:08:39 10° NNE
NOSS 2-2 (E) 4.1 06:01:00 10° WSW 06:05:08 47° NW 06:10:08 10° NNE
Cosmos 2263 Rocket 3.1 06:01:53 10° S 06:07:18 54° ESE 06:12:43 10° NE
NOAA 6 4.1 06:02:13 10° N 06:07:21 60° WNW 06:12:26 10° SSW
